Location: Sundre
(51.7972°N, 114.6405°W)
Time: 18:56:30
(UTC-07:00)

TIGRISAT - Pass Details

Date: 01 February 2020
Orbit: 605 x 689 km, 97.7° (Epoch: 21 February)

Event Time Altitude Azimuth Distance (km) Brightness Sun altitude
Rises 07:32:48 0° 145° (SE) 2,887 ? -7.3°
Reaches altitude 10° 07:35:04 10° 138° (SE) 1,975 ? -7.0°
Maximum altitude 07:39:06 42° 68° (ENE) 880 ? -6.4°
Drops below altitude 10° 07:43:07 10° 358° (N) 1,967 ? -5.8°
Sets 07:45:22 0° 352° (N) 2,873 ? -5.5°
